Regional Weather Roundup
Issued by NWS

Home | Current Version | Previous Version | Text Only | Print | Product List | Glossary On
Versions: 1 2 3 4 5 6 7 8 9 10 11 12 13 14 15 16 17 18 19 20 21 22 23 24 25 26 27 28 29 30 31 32 33 34 35 36 37 38 39 40 41 42 43 44 45 46 47 48 49 50
000
ASUS43 KMPX 261301
RWRMN
WEATHER ROUNDUP FOR MINNESOTA
NATIONAL WEATHER SERVICE TWIN CITIES/CHANHASSEN MN
700 AM CST MON JAN 26 2015


NOTE: "FAIR" INDICATES FEW OR NO CLOUDS BELOW 12,000 FEET WITH NO
SIGNIFICANT WEATHER AND/OR OBSTRUCTIONS TO VISIBILITY. N/A MEANS
CURRENT SKY AND/OR WEATHER CONDITIONS ARE NOT AVAILABLE.

MNZ060>063-068>070-261400-
   Twin Cities Metro

CITY           SKY/WX    TMP DP  RH WIND       PRES   REMARKS
TWIN CITIES    CLOUDY    29  25  85 S9        29.72F WCI  20
ST PAUL        CLOUDY    28  25  88 SE8       29.73F WCI  20
CRYSTAL        CLOUDY    29  25  85 S8        29.69F WCI  21
BLAINE         CLOUDY    30  28  93 S12       29.69F WCI  21
LAKEVILLE      CLOUDY    28  27  93 S8        29.71F WCI  20
EDEN PRAIRIE   CLOUDY    31  27  85 S10       29.70F WCI  22
SOUTH ST PAUL  CLOUDY    29  26  88 S6        29.71F WCI  23
LAKE ELMO      CLOUDY    28  27  93 S10       29.72F WCI  19
$$
MNZ001>005-007-008-013>017-022>024-027-028-261400-
   Northwest Minnesota

CITY           SKY/WX    TMP DP  RH WIND       PRES   REMARKS
BEMIDJI        CLOUDY    32  29  89 W12       29.60R WCI  23
HALLOCK        CLOUDY    37  32  81 NW18G25   29.63R
ROSEAU         CLOUDY    34  30  86 W12G17    29.57R WCI  25
WARROAD        CLOUDY    32  28  86 W9        29.56R WCI  24
THIEF RVR FALL CLOUDY    34  30  86 W14       29.63R WCI  24
CROOKSTON      PTCLDY    30  28  93 NW14      29.66R WCI  20
FOSSTON        MOCLDY    30  28  93 W12G17    29.64R WCI  21
DETROIT LAKES  CLEAR     32  32 100 NW16      29.66S WCI  21
MOORHEAD       CLEAR     34  34 100 W12       29.70R WCI  25
PARK RAPIDS    PTCLDY    29  26  89 W9        29.60F WCI  20
MAHNOMEN       FAIR      29  27  92 W10       29.64R WCI  19
$$
MNZ006-009>011-018-025>026-261400-
   North Central Minnesota

CITY           SKY/WX    TMP DP  RH WIND       PRES   REMARKS
BAUDETTE       CLOUDY    31  28  89 W5        29.53R WCI  26
FLAG ISLAND    CLOUDY    30  28  93 NW12      29.53R WCI  21
INTL FALLS     LGT SNOW  24  22  91 S6        29.55S FOG     WCI  17
WASKISH        CLOUDY    30  28  93 SW8       29.57R WCI  23
BIG FORK       LGT SNOW  27  25  93 S6        29.57F WCI  20
LONGVILLE      CLOUDY    28  27  93 SW6       29.60F WCI  22
GRAND RAPIDS   CLOUDY    25  23  93 S9        29.58F WCI  15
CRANE LAKE     LGT SNOW  21  19  93 S3        29.61R
ORR            MIX PCPN  21  19  93 S6        29.55S WCI  14
COOK           LGT SNOW  21  19  93 S7        29.59R WCI  13
WALKER         PTSUNNY   29  26  88 SW6       29.58F WCI  23
$$
MNZ012-019>021-037-261400-
   Northeast Minnesota

CITY           SKY/WX    TMP DP  RH WIND       PRES   REMARKS
DULUTH         FRZ DRZL  20  17  88 S14       29.62F WCI   7
ELY            FLURRIES  19  16  86 S7        29.61R WCI  10
HIBBING        CLOUDY    22  19  89 S7        29.60F FOG     WCI  13
EVELETH        LGT SNOW  21  21 100 S7        29.61F WCI  13
DULUTH HARBOR  MIX PCPN  23  19  86 CALM      29.70F
TWO HARBORS    LGT SNOW  23  18  80 S5        29.64F WCI  17
SILVER BAY     LGT SNOW  21  19  93 S5        29.64F WCI  15
GRAND MARAIS     N/A     25  22  88 S20       29.73F WCI  11
G MARAIS ARPRT SNOW      18  14  86 S10G16    29.64F VSB 1/2 WCI   6
$$
MNZ029>031-032-039>041-046>048-054>057-064-261400-
   West Central Minnesota

CITY           SKY/WX    TMP DP  RH WIND       PRES   REMARKS
FERGUS FALLS   PTCLDY    27  27 100 NW9       29.72R WCI  17
WHEATON        PTCLDY    34  30  86 W15       29.74R WCI  24
MORRIS         PTCLDY    34  30  86 NW15      29.69R WCI  24
ALEXANDRIA     PTCLDY    32  28  85 NW12      29.67R WCI  23
ELBOW LAKE     FAIR      30  29  94 NW10      29.69R WCI  21
WADENA         PTCLDY    27  25  93 W7        29.64R WCI  19
GLENWOOD       MOCLDY    32  30  93 W14       29.67R WCI  22
APPLETON       PTCLDY    36  30  80 W12       29.71R
BENSON         CLOUDY    34  30  86 N9        29.70R WCI  26
ORTONVILLE     PTCLDY    37  30  75 NW13      29.72R
MADISON        PTCLDY    39  36  87 W14       29.73R
WILLMAR        FAIR      36  30  80 W15       29.69S
$$
MNZ033>034-036-042>043-049>051-058-059-261400-
   Central Minnesota

CITY           SKY/WX    TMP DP  RH WIND       PRES   REMARKS
ST CLOUD       CLOUDY    29  28  96 VRB5      29.66F WCI  24
SAUK CENTRE    FAIR      29  28  94 W5        29.66R WCI  24
PAYNESVILLE    MOCLDY    28  28  96 S5        29.67S WCI  23
AITKIN         CLOUDY    28  21  74 S3        29.62S
PINE RIVER     CLOUDY    30  27  86 SW3       29.65F
BRAINERD       CLOUDY    28  26  92 SW8       29.64S WCI  20
STAPLES        CLOUDY    30  28  93 W12       29.65R WCI  21
LONG PRAIRIE   FAIR      30  28  93 W5        29.66R WCI  25
LITTLE FALLS   CLOUDY    30  28  93 SW3       29.66S
LITCHFIELD     MOCLDY    34  32  93 CALM      29.68R
BUFFALO        CLOUDY    30  28  92 S5        29.70R WCI  26
MAPLE LAKE     CLOUDY    32  31  96 CALM      29.69R
$$
MNZ037-044-045-052-053-261400-
   East Central Minnesota

CITY           SKY/WX    TMP DP  RH WIND       PRES   REMARKS
PRINCETON      CLOUDY    28  27  93 NW9       29.68S WCI  20
MORA           CLOUDY    25  21  86 S3        29.70S
CAMBRIDGE      CLOUDY    28  21  74 S5        29.68S WCI  23
RUSH CITY      CLOUDY    24  21  90 S6        29.70F WCI  17
MOOSE LAKE     CLOUDY    23  21  93 S9        29.64F FOG     WCI  13
HINCKLEY       CLOUDY    23  23 100 S7        29.68F WCI  15
CLOQUET        CLOUDY    21  19  93 S6        29.64F FOG     WCI  14
MCGREGOR       CLOUDY    27  23  86 S6        29.63F WCI  20
$$
MNZ071>073-080-081-089-090-097-098-261400-
   Southwest Minnesota

CITY           SKY/WX    TMP DP  RH WIND       PRES   REMARKS
MONTEVIDEO     PTCLDY    37  37 100 NW13G20   29.71
GRANITE FALLS  MOCLDY    35  32  88 W14       29.72S WCI  26
CANBY          MOCLDY    38  32  81 W16       29.75R
MARSHALL       MOCLDY    36  28  75 NW13      29.74R
REDWOOD FALLS  MOCLDY    37  31  78 W17       29.70R
OLIVIA         MOCLDY    32  32 100 W13       29.68F WCI  22
PIPESTONE      PTCLDY    34  30  86 W13       29.75R WCI  25
WINDOM         CLOUDY    36  32  87 SW16G23   29.72R
WORTHINGTON    CLOUDY    34  28  80 W17G26    29.75S WCI  23
JACKSON        CLOUDY    34  32  93 SW18G26   29.73S WCI  23
TRACY          MOCLDY    38  33  82 W12G17    29.73R
SLAYTON        MOCLDY    35  31  85 W18G25    29.73S WCI  25
$$
MNZ065>067-074>077-082>085-091>093-261400-
   South Central Minnesota

CITY           SKY/WX    TMP DP  RH WIND       PRES   REMARKS
MANKATO        CLOUDY    34  28  80 SW9       29.74R WCI  26
NEW ULM        CLOUDY    36  30  80 W10       29.72R
ST JAMES       CLOUDY    36  32  87 SW18G26   29.72R
FAIRMONT       CLOUDY    34  28  80 SW18G29   29.71R WCI  23
GLENCOE        CLOUDY    33  32  97 S6        29.68F WCI  27
FARIBAULT      CLOUDY    30  28  93 S7        29.75S WCI  23
OWATONNA       CLOUDY    30  28  93 S7        29.74F WCI  23
WASECA         CLOUDY    32  30  93 S9        29.76R WCI  24
ALBERT LEA     CLOUDY    30  30 100 S8        29.73S WCI  23
$$
MNZ078>079-086>088-094>096-261400-
   Southeast Minnesota

CITY           SKY/WX    TMP DP  RH WIND       PRES   REMARKS
ROCHESTER      CLOUDY    26  24  92 S12       29.78F WCI  16
RED WING       CLOUDY    27  25  93 SE6       29.76F WCI  20
STANTON        CLOUDY    31  27  85 S13       29.72F WCI  21
DODGE CENTER   CLOUDY    28  27  93 S13       29.76R WCI  18
WINONA         LGT SNOW  25  23  93 SE5       29.84F WCI  19
AUSTIN         CLOUDY    28  27  93 S7        29.77R WCI  21
PRESTON        CLOUDY    24  22  92 S10       29.80R WCI  14
$$
ABBREVIATIONS USED IN REMARKS
   TC - TEMPERATURES IN CELSIUS
  WCI - WIND CHILL INDEX
   HX - HEAT INDEX
  VSB - VISIBILITY
$$



USA.gov is the U.S. government's official web portal to all federal, state and local government web resources and services.